| time (UTC) | temp F | wind direction | speed MPH | gust MPH | rain 1hr in | rain 24hr in | rain mn in | humidity % | barometer mb |
| 20260903174503 | 85 | 259 | 1.0 | 4.0 | 0.00 | 0.00 | 0.00 | 39 | 1006.3 |
| 20260903173603 | 85 | 286 | 2.0 | 7.0 | 0.00 | 0.00 | 0.00 | 39 | 1006.3 |
| 20260903172917 | 85 | 313 | 1.0 | 7.0 | 0.00 | 0.00 | 0.00 | 39 | 1006.2 |
| 20260903171804 | 85 | 298 | 2.0 | 9.0 | 0.00 | 0.00 | 0.00 | 39 | 1006.2 |
| 20260903171117 | 86 | 228 | 2.0 | 9.0 | 0.00 | 0.00 | 0.00 | 39 | 1006.1 |
| 20260903170004 | 86 | 257 | 2.0 | 7.0 | 0.00 | 0.00 | 0.00 | 39 | 1006.0 |
| 20260903165616 | 86 | 242 | 2.0 | 7.0 | 0.00 | 0.00 | 0.00 | 39 | 1005.8 |
| 20260903164713 | 86 | 237 | 2.0 | 6.0 | 0.00 | 0.00 | 0.00 | 39 | 1005.6 |
| 20260903163815 | 87 | 235 | 2.0 | 8.0 | 0.00 | 0.00 | 0.00 | 39 | 1005.8 |
| 20260903162704 | 87 | 248 | 3.0 | 8.0 | 0.00 | 0.00 | 0.00 | 38 | 1005.8 |
| 20260903161803 | 87 | 260 | 3.0 | 9.0 | 0.00 | 0.00 | 0.00 | 38 | 1005.7 |
| 20260903161117 | 87 | 252 | 3.0 | 8.0 | 0.00 | 0.00 | 0.00 | 38 | 1005.7 |
| 20260903160215 | 88 | 242 | 3.0 | 11.0 | 0.00 | 0.00 | 0.00 | 37 | 1005.8 |
| 20260903155616 | 89 | 259 | 4.0 | 9.0 | 0.00 | 0.00 | 0.00 | 36 | 1005.8 |
| 20260903154504 | 89 | 243 | 3.0 | 11.0 | 0.00 | 0.00 | 0.00 | 36 | 1005.4 |
| 20260903153604 | 90 | 250 | 4.0 | 9.0 | 0.00 | 0.00 | 0.00 | 36 | 1005.4 |
| 20260903152913 | 90 | 235 | 4.0 | 9.0 | 0.00 | 0.00 | 0.00 | 36 | 1005.6 |
| 20260903152016 | 90 | 260 | 3.0 | 11.0 | 0.00 | 0.00 | 0.00 | 37 | 1005.3 |
| 20260903151113 | 89 | 226 | 4.0 | 9.0 | 0.00 | 0.00 | 0.00 | 38 | 1005.3 |
| 20260903150215 | 90 | 235 | 4.0 | 9.0 | 0.00 | 0.00 | 0.00 | 38 | 1005.4 |
| 20260903145403 | 90 | 262 | 4.0 | 9.0 | 0.00 | 0.00 | 0.00 | 38 | 1005.6 |
| 20260903144503 | 90 | 271 | 3.0 | 9.0 | 0.00 | 0.00 | 0.00 | 40 | 1005.4 |
| 20260903143603 | 91 | 267 | 4.0 | 9.0 | 0.00 | 0.00 | 0.00 | 39 | 1005.2 |
| 20260903142704 | 91 | 259 | 3.0 | 8.0 | 0.00 | 0.00 | 0.00 | 38 | 1005.2 |
| 20260903142016 | 92 | 234 | 4.0 | 9.0 | 0.00 | 0.00 | 0.00 | 37 | 1005.2 |
| 20260903141113 | 93 | 252 | 4.0 | 9.0 | 0.00 | 0.00 | 0.00 | 36 | 1005.3 |
| 20260903140004 | 93 | 266 | 4.0 | 9.0 | 0.00 | 0.00 | 0.00 | 36 | 1005.3 |
| 20260903135617 | 94 | 260 | 4.0 | 9.0 | 0.00 | 0.00 | 0.00 | 35 | 1005.6 |
| 20260903134503 | 94 | 230 | 2.0 | 11.0 | 0.00 | 0.00 | 0.00 | 35 | 1005.3 |
| 20260903133603 | 94 | 249 | 4.0 | 9.0 | 0.00 | 0.00 | 0.00 | 35 | 1004.9 |
| 20260903132703 | 95 | 236 | 3.0 | 8.0 | 0.00 | 0.00 | 0.00 | 34 | 1005.4 |
| 20260903131803 | 95 | 249 | 4.0 | 9.0 | 0.00 | 0.00 | 0.00 | 34 | 1005.3 |
| 20260903131114 | 94 | 238 | 4.0 | 9.0 | 0.00 | 0.00 | 0.00 | 34 | 1005.4 |
| 20260903130217 | 94 | 229 | 5.0 | 9.0 | 0.00 | 0.00 | 0.00 | 34 | 1005.5 |
| 20260903125404 | 95 | 247 | 3.0 | 7.0 | 0.00 | 0.00 | 0.00 | 34 | 1005.5 |
| 20260903124504 | 94 | 269 | 3.0 | 14.0 | 0.00 | 0.00 | 0.00 | 35 | 1005.7 |
| 20260903123813 | 94 | 282 | 5.0 | 14.0 | 0.00 | 0.00 | 0.00 | 35 | 1005.7 |
| 20260903122703 | 95 | 227 | 3.0 | 9.0 | 0.00 | 0.00 | 0.00 | 34 | 1005.5 |
| 20260903122017 | 95 | 254 | 3.0 | 11.0 | 0.00 | 0.00 | 0.00 | 34 | 1005.7 |
| 20260903120903 | 94 | 255 | 4.0 | 11.0 | 0.00 | 0.00 | 0.00 | 35 | 1005.7 |
| 20260903120004 | 93 | 284 | 4.0 | 11.0 | 0.00 | 0.00 | 0.00 | 36 | 1005.6 |
| 20260903115614 | 94 | 269 | 4.0 | 9.0 | 0.00 | 0.00 | 0.00 | 36 | 1005.8 |
| 20260903114504 | 94 | 99 | 4.0 | 11.0 | 0.00 | 0.00 | 0.00 | 36 | 1005.9 |
| 20260903113813 | 93 | 227 | 4.0 | 11.0 | 0.00 | 0.00 | 0.00 | 37 | 1006.1 |
| 20260903112916 | 93 | 254 | 5.0 | 11.0 | 0.00 | 0.00 | 0.00 | 37 | 1006.0 |
| 20260903111803 | 94 | 108 | 3.0 | 11.0 | 0.00 | 0.00 | 0.00 | 38 | 1006.0 |
| 20260903110903 | 93 | 272 | 2.0 | 9.0 | 0.00 | 0.00 | 0.00 | 37 | 1006.3 |
| 20260903110218 | 93 | 233 | 4.0 | 9.0 | 0.00 | 0.00 | 0.00 | 38 | 1006.2 |
| 20260903105403 | 93 | 225 | 3.0 | 8.0 | 0.00 | 0.00 | 0.00 | 38 | 1006.0 |
| 20260903104717 | 94 | 246 | 3.0 | 7.0 | 0.00 | 0.00 | 0.00 | 37 | 1006.0 |
| 20260903103814 | 95 | 246 | 2.0 | 6.0 | 0.00 | 0.00 | 0.00 | 36 | 1006.0 |
| 20260903102916 | 94 | 289 | 2.0 | 15.0 | 0.00 | 0.00 | 0.00 | 35 | 1006.2 |
| 20260903102014 | 94 | 274 | 2.0 | 7.0 | 0.00 | 0.00 | 0.00 | 35 | 1006.2 |
| 20260903101116 | 93 | 236 | 2.0 | 8.0 | 0.00 | 0.00 | 0.00 | 36 | 1006.7 |
| 20260903100213 | 93 | 229 | 4.0 | 11.0 | 0.00 | 0.00 | 0.00 | 37 | 1006.3 |
| 20260903095615 | 93 | 238 | 2.0 | 8.0 | 0.00 | 0.00 | 0.00 | 36 | 1006.5 |
| 20260903094717 | 93 | 236 | 2.0 | 7.0 | 0.00 | 0.00 | 0.00 | 36 | 1006.8 |
| 20260903093815 | 93 | 257 | 3.0 | 7.0 | 0.00 | 0.00 | 0.00 | 36 | 1006.5 |
| 20260903092703 | 93 | 248 | 3.0 | 8.0 | 0.00 | 0.00 | 0.00 | 36 | 1006.8 |
| 20260903091803 | 93 | 264 | 4.0 | 14.0 | 0.00 | 0.00 | 0.00 | 36 | 1006.9 |
| 20260903090903 | 92 | 246 | 4.0 | 9.0 | 0.00 | 0.00 | 0.00 | 37 | 1006.9 |
| 20260903090214 | 92 | 264 | 3.0 | 9.0 | 0.00 | 0.00 | 0.00 | 37 | 1007.1 |
| 20260903085616 | 92 | 282 | 4.0 | 7.0 | 0.00 | 0.00 | 0.00 | 37 | 1007.1 |
| 20260903084713 | 93 | 247 | 3.0 | 7.0 | 0.00 | 0.00 | 0.00 | 35 | 1007.0 |
| 20260903083603 | 92 | 264 | 3.0 | 7.0 | 0.00 | 0.00 | 0.00 | 35 | 1007.3 |
| 20260903082703 | 93 | 272 | 2.0 | 4.0 | 0.00 | 0.00 | 0.00 | 35 | 1007.2 |
| 20260903082015 | 92 | 298 | 1.0 | 8.0 | 0.00 | 0.00 | 0.00 | 35 | 1007.1 |
| 20260903081117 | 92 | 240 | 3.0 | 8.0 | 0.00 | 0.00 | 0.00 | 35 | 1007.1 |
| 20260903080004 | 91 | 268 | 2.0 | 4.0 | 0.00 | 0.00 | 0.00 | 35 | 1007.1 |
| 20260903075403 | 90 | 351 | 2.0 | 4.0 | 0.00 | 0.00 | 0.00 | 38 | 1007.1 |
| 20260903074504 | 88 | 87 | 1.0 | 6.0 | 0.00 | 0.00 | 0.00 | 42 | 1007.2 |
| 20260903073816 | 88 | 94 | 1.0 | 4.0 | 0.00 | 0.00 | 0.00 | 42 | 1007.2 |
| 20260903072704 | 88 | 273 | 1.0 | 4.0 | 0.00 | 0.00 | 0.00 | 42 | 1007.2 |
| 20260903072016 | 88 | 267 | 2.0 | 6.0 | 0.00 | 0.00 | 0.00 | 42 | 1007.3 |
| 20260903071113 | 88 | 270 | 2.0 | 7.0 | 0.00 | 0.00 | 0.00 | 43 | 1007.1 |
| 20260903070004 | 88 | 258 | 2.0 | 4.0 | 0.00 | 0.00 | 0.00 | 44 | 1007.1 |
| 20260903065403 | 87 | 271 | 2.0 | 4.0 | 0.00 | 0.00 | 0.00 | 45 | 1007.3 |
| 20260903064714 | 87 | 282 | 0.0 | 4.0 | 0.00 | 0.00 | 0.00 | 45 | 1007.3 |
| 20260903063603 | 86 | 233 | 2.0 | 7.0 | 0.00 | 0.00 | 0.00 | 46 | 1007.2 |
| 20260903062703 | 86 | 260 | 2.0 | 4.0 | 0.00 | 0.00 | 0.00 | 47 | 1007.3 |
| 20260903061804 | 86 | 266 | 1.0 | 4.0 | 0.00 | 0.00 | 0.00 | 47 | 1007.0 |
| 20260903061113 | 85 | 270 | 1.0 | 4.0 | 0.00 | 0.00 | 0.00 | 48 | 1007.2 |
| 20260903060216 | 84 | 276 | 2.0 | 4.0 | 0.00 | 0.00 | 0.00 | 49 | 1007.1 |
| 20260903055617 | 84 | 268 | 1.0 | 6.0 | 0.00 | 0.00 | 0.00 | 50 | 1007.1 |
| 20260903054503 | 84 | 279 | 2.0 | 4.0 | 0.00 | 0.00 | 0.00 | 50 | 1007.1 |
| 20260903053603 | 83 | 264 | 2.0 | 4.0 | 0.00 | 0.00 | 0.00 | 50 | 1007.2 |
| 20260903052914 | 83 | 240 | 1.0 | 4.0 | 0.00 | 0.00 | 0.00 | 49 | 1007.3 |
| 20260903052017 | 83 | 196 | 2.0 | 4.0 | 0.00 | 0.00 | 0.00 | 48 | 1007.2 |
| 20260903051114 | 83 | 249 | 3.0 | 4.0 | 0.00 | 0.00 | 0.00 | 48 | 1007.4 |
| 20260903050216 | 83 | 260 | 1.0 | 6.0 | 0.00 | 0.00 | 0.00 | 48 | 1007.3 |
| 20260903045613 | 83 | 254 | 2.0 | 6.0 | 0.00 | 0.00 | 0.00 | 47 | 1007.1 |
| 20260903044715 | 83 | 273 | 0.0 | 4.0 | 0.00 | 0.00 | 0.00 | 44 | 1007.4 |
| 20260903043813 | 83 | 82 | 1.0 | 6.0 | 0.00 | 0.00 | 0.00 | 44 | 1007.3 |
| 20260903042703 | 83 | 292 | 1.0 | 2.0 | 0.00 | 0.00 | 0.00 | 44 | 1007.1 |
| 20260903041803 | 83 | 292 | 2.0 | 4.0 | 0.00 | 0.00 | 0.00 | 44 | 1007.1 |
| 20260903041115 | 83 | 306 | 0.0 | 4.0 | 0.00 | 0.00 | 0.00 | 44 | 1006.8 |
| 20260903040004 | 83 | 300 | 2.0 | 6.0 | 0.00 | 0.00 | 0.00 | 42 | 1006.6 |
| 20260903035403 | 84 | 294 | 4.0 | 6.0 | 0.00 | 0.00 | 0.00 | 40 | 1006.8 |
| 20260903034504 | 83 | 318 | 1.0 | 2.0 | 0.00 | 0.00 | 0.00 | 40 | 1006.6 |
| 20260903033813 | 83 | 321 | 1.0 | 4.0 | 0.00 | 0.00 | 0.00 | 41 | 1006.8 |
| 20260903032704 | 83 | 99 | 0.0 | 2.0 | 0.00 | 0.00 | 0.00 | 40 | 1006.8 |
| 20260903031803 | 84 | 98 | 0.0 | 4.0 | 0.00 | 0.00 | 0.00 | 40 | 1006.8 |
| 20260903030903 | 84 | 99 | 1.0 | 4.0 | 0.00 | 0.00 | 0.00 | 39 | 1006.5 |
| 20260903030218 | 84 | 89 | 1.0 | 4.0 | 0.00 | 0.00 | 0.00 | 39 | 1006.8 |
| 20260903025403 | 84 | 93 | 0.0 | 4.0 | 0.00 | 0.00 | 0.00 | 39 | 1006.5 |
| 20260903024717 | 84 | 123 | 1.0 | 4.0 | 0.00 | 0.00 | 0.00 | 39 | 1006.7 |
| 20260903023814 | 84 | 247 | 2.0 | 4.0 | 0.00 | 0.00 | 0.00 | 39 | 1006.6 |
| 20260903022703 | 84 | 271 | 2.0 | 4.0 | 0.00 | 0.00 | 0.00 | 38 | 1006.8 |
| 20260903022014 | 84 | 262 | 2.0 | 4.0 | 0.00 | 0.00 | 0.00 | 38 | 1006.8 |
| 20260903021116 | 84 | 261 | 2.0 | 4.0 | 0.00 | 0.00 | 0.00 | 38 | 1006.8 |
| 20260903020004 | 84 | 264 | 1.0 | 4.0 | 0.00 | 0.00 | 0.00 | 38 | 1006.6 |
| 20260903015615 | 84 | 272 | 1.0 | 4.0 | 0.00 | 0.00 | 0.00 | 38 | 1006.6 |
| 20260903014717 | 83 | 270 | 1.0 | 2.0 | 0.00 | 0.00 | 0.00 | 39 | 1006.4 |
| 20260903013815 | 83 | 270 | 0.0 | 2.0 | 0.00 | 0.00 | 0.00 | 40 | 1006.7 |
| 20260903012703 | 82 | 270 | 0.0 | 2.0 | 0.00 | 0.00 | 0.00 | 40 | 1006.7 |
| 20260903011803 | 83 | 270 | 0.0 | 2.0 | 0.00 | 0.00 | 0.00 | 40 | 1006.8 |
| 20260903010903 | 83 | 270 | 0.0 | 2.0 | 0.00 | 0.00 | 0.00 | 40 | 1006.8 |
| 20260903010004 | 83 | 270 | 1.0 | 2.0 | 0.00 | 0.00 | 0.00 | 39 | 1006.9 |
| 20260903005616 | 83 | 267 | 0.0 | 2.0 | 0.00 | 0.00 | 0.00 | 39 | 1006.9 |
| 20260903004713 | 83 | 267 | 0.0 | 2.0 | 0.00 | 0.00 | 0.00 | 39 | 1006.8 |
| 20260903003604 | 83 | 279 | 0.0 | 4.0 | 0.00 | 0.00 | 0.00 | 39 | 1007.0 |
| 20260903002918 | 83 | 284 | 1.0 | 2.0 | 0.00 | 0.00 | 0.00 | 39 | 1006.7 |
| 20260903002015 | 83 | 292 | 1.0 | 4.0 | 0.00 | 0.00 | 0.00 | 39 | 1006.8 |
| 20260903000903 | 83 | 292 | 1.0 | 4.0 | 0.00 | 0.00 | 0.00 | 39 | 1007.1 |
| 20260903000215 | 84 | 302 | 1.0 | 4.0 | 0.00 | 0.00 | 0.00 | 39 | 1006.9 |
| 20260902235616 | 84 | 307 | 2.0 | 4.0 | 0.00 | 0.00 | 0.00 | 39 | 1006.7 |
| 20260902234713 | 84 | 306 | 1.0 | 7.0 | 0.00 | 0.00 | 0.00 | 39 | 1006.8 |
| 20260902233604 | 84 | 272 | 1.0 | 4.0 | 0.00 | 0.00 | 0.00 | 39 | 1006.9 |
| 20260902232913 | 84 | 248 | 1.0 | 2.0 | 0.00 | 0.00 | 0.00 | 39 | 1007.0 |
| 20260902232016 | 84 | 285 | 1.0 | 2.0 | 0.00 | 0.00 | 0.00 | 39 | 1006.9 |
| 20260902230903 | 84 | 305 | 1.0 | 4.0 | 0.00 | 0.00 | 0.00 | 39 | 1007.1 |
| 20260902230215 | 84 | 292 | 1.0 | 4.0 | 0.00 | 0.00 | 0.00 | 38 | 1007.4 |
| 20260902225403 | 84 | 274 | 1.0 | 4.0 | 0.00 | 0.00 | 0.00 | 38 | 1006.8 |
| 20260902224714 | 84 | 232 | 2.0 | 4.0 | 0.00 | 0.00 | 0.00 | 39 | 1007.1 |
| 20260902223603 | 83 | 273 | 1.0 | 2.0 | 0.00 | 0.00 | 0.00 | 39 | 1007.2 |
| 20260902222703 | 84 | 259 | 1.0 | 2.0 | 0.00 | 0.00 | 0.00 | 38 | 1007.4 |
| 20260902222016 | 84 | 230 | 1.0 | 2.0 | 0.00 | 0.00 | 0.00 | 38 | 1007.3 |
| 20260902221113 | 84 | 251 | 1.0 | 2.0 | 0.00 | 0.00 | 0.00 | 38 | 1007.4 |
| 20260902220004 | 84 | 270 | 0.0 | 2.0 | 0.00 | 0.00 | 0.00 | 38 | 1007.5 |
| 20260902215403 | 84 | 270 | 0.0 | 2.0 | 0.00 | 0.00 | 0.00 | 37 | 1007.2 |
| 20260902214503 | 84 | 270 | 0.0 | 2.0 | 0.00 | 0.00 | 0.00 | 37 | 1007.6 |
| 20260902213817 | 84 | 270 | 0.0 | 2.0 | 0.00 | 0.00 | 0.00 | 37 | 1007.6 |
| 20260902212703 | 85 | 292 | 0.0 | 2.0 | 0.00 | 0.00 | 0.00 | 37 | 1007.8 |
| 20260902212017 | 85 | 292 | 0.0 | 4.0 | 0.00 | 0.00 | 0.00 | 37 | 1007.6 |
| 20260902210903 | 85 | 269 | 1.0 | 2.0 | 0.00 | 0.00 | 0.00 | 36 | 1007.5 |
| 20260902210222 | 85 | 274 | 1.0 | 2.0 | 0.00 | 0.00 | 0.00 | 36 | 1007.6 |
| 20260902205404 | 85 | 272 | 0.0 | 2.0 | 0.00 | 0.00 | 0.00 | 36 | 1007.9 |
| 20260902204715 | 85 | 287 | 1.0 | 2.0 | 0.00 | 0.00 | 0.00 | 36 | 1007.7 |
| 20260902203813 | 85 | 292 | 0.0 | 2.0 | 0.00 | 0.00 | 0.00 | 37 | 1007.8 |
| 20260902202704 | 85 | 286 | 0.0 | 2.0 | 0.00 | 0.00 | 0.00 | 36 | 1007.8 |
| 20260902201803 | 85 | 283 | 1.0 | 2.0 | 0.00 | 0.00 | 0.00 | 36 | 1007.7 |
| 20260902201115 | 86 | 310 | 0.0 | 4.0 | 0.00 | 0.00 | 0.00 | 36 | 1007.7 |
| 20260902200217 | 86 | 309 | 0.0 | 6.0 | 0.00 | 0.00 | 0.00 | 35 | 1008.0 |
| 20260902195403 | 86 | 295 | 1.0 | 2.0 | 0.00 | 0.00 | 0.00 | 35 | 1007.6 |
| 20260902194716 | 86 | 264 | 2.0 | 2.0 | 0.00 | 0.00 | 0.00 | 35 | 1007.8 |
| 20260902193813 | 86 | 271 | 1.0 | 2.0 | 0.00 | 0.00 | 0.00 | 35 | 1007.9 |
| 20260902192916 | 86 | 280 | 0.0 | 2.0 | 0.00 | 0.00 | 0.00 | 35 | 1007.7 |
| 20260902192013 | 86 | 292 | 0.0 | 2.0 | 0.00 | 0.00 | 0.00 | 35 | 1007.8 |
| 20260902191115 | 86 | 286 | 0.0 | 4.0 | 0.00 | 0.00 | 0.00 | 35 | 1007.7 |
| 20260902190004 | 87 | 297 | 1.0 | 4.0 | 0.00 | 0.00 | 0.00 | 35 | 1008.1 |
| 20260902185614 | 87 | 293 | 0.0 | 4.0 | 0.00 | 0.00 | 0.00 | 34 | 1007.8 |
| 20260902184503 | 87 | 288 | 0.0 | 4.0 | 0.00 | 0.00 | 0.00 | 34 | 1007.8 |
| 20260902183603 | 87 | 288 | 0.0 | 2.0 | 0.00 | 0.00 | 0.00 | 34 | 1007.5 |
| 20260902182916 | 87 | 282 | 1.0 | 4.0 | 0.00 | 0.00 | 0.00 | 34 | 1007.9 |
| 20260902182014 | 88 | 267 | 1.0 | 4.0 | 0.00 | 0.00 | 0.00 | 33 | 1007.6 |
| 20260902180904 | 88 | 288 | 1.0 | 4.0 | 0.00 | 0.00 | 0.00 | 33 | 1007.8 |
| 20260902180006 | 88 | 249 | 1.0 | 4.0 | 0.00 | 0.00 | 0.00 | 33 | 1007.4 |
| 20260902175404 | 88 | 261 | 1.0 | 4.0 | 0.00 | 0.00 | 0.00 | 33 | 1007.4 |